Location: Wapato
(46.4478°N, 120.4212°W)
Time: 10:05:54
(UTC+00:00)

Injun/Solrad 3 - Pass Details

Date: 19 May 2026
Orbit: 867 x 989 km, 66.8° (Epoch: 10 June)

Event Time Altitude Azimuth Distance (km) Brightness Sun altitude
Rises 07:57:21 0° 323° (NW) 3,687 11.8 -23.8°
Reaches altitude 10° 07:59:58 10° 319° (NW) 2,745 11.0 -23.8°
Maximum altitude 08:06:12 54° 245° (WSW) 1,192 8.2 -23.7°
Enters shadow 08:07:24 47° 208° (SSW) 1,285 8.2 -23.7°
Drops below altitude 10° 08:12:25 10° 170° (S) 2,735 - -23.7°
Sets 08:15:01 0° 165° (SSE) 3,673 - -23.6°
